Location: Unspecified
(43.8044°N, 11.0278°E)
Time: 16:28:45
(UTC+02:00)

Cosmos 1674 - Visible Passes

Search period start: 29 June 2016 00:00
Search period end: 09 July 2016 00:00
Orbit: 502 x 524 km, 82.5° (Epoch: 29 June)

Date Brightness Start Highest point End Pass type
(mag) Time Alt. Az. Time Alt. Az. Time Alt. Az.
29 Jun 4.9 22:24:38 10° SW 22:27:55 26° WNW 22:31:13 10° NNW visible
30 Jun 4.6 22:08:36 10° SW 22:12:04 32° WNW 22:15:35 10° N visible
01 Jul 4.2 21:52:36 10° SSW 21:56:14 40° WNW 21:59:55 10° N visible
02 Jul 3.8 21:36:40 10° SSW 21:40:25 50° WNW 21:44:12 10° N visible
07 Jul 6.1 21:55:48 10° W 21:57:27 12° WNW 21:59:05 10° NW visible
08 Jul 5.9 21:39:16 10° WSW 21:41:33 15° WNW 21:43:50 10° NNW visible
